{"data":{"norad_id":44857,"epoch":"2026-09-20T04:40:07.396320Z","epoch_age_seconds":80111,"freshness":"FRESH","line1":"1 44857U 19089F   26263.19453005  .00001538  00000+0  12458-3 0  9990","line2":"2 44857  36.9603 268.1469 0013232 236.4378 123.5101 15.00881374371480","mean_motion":15.00881374,"eccentricity":0.0013232,"inclination_deg":36.9603,"raan_deg":268.1469,"arg_perigee_deg":236.4378,"mean_anomaly_deg":123.5101,"bstar":0.00012458,"rev_number":37148,"period_min":95.943625188862,"perigee_km":554.99108616672,"apogee_km":573.36322634984,"semimajor_km":6942.3141562583,"source":"CELESTRAK","updated_at":"2026-09-20T09:00:14.567372Z"}}